Location: Góry Miechowskie
(50.3599°N, 20.1803°E)
Time: 23:03:32
(UTC+00:00)

Tiros 1 despin weight - Pass Details

Date: 18 September 2024
Orbit: 572 x 614 km, 48.2° (Epoch: 12 October)

Event Time Altitude Azimuth Distance (km) Brightness Sun altitude
Rises 04:17:20 0° 273° (W) 2,881 - -1.3°
Exits shadow 04:17:42 - 272° (W) 2,735 ? -1.2°
Reaches altitude 10° 04:19:39 10° 270° (W) 1,978 ? -0.9°
Maximum altitude 04:24:08 61° 190° (S) 700 ? -0.2°
Drops below altitude 10° 04:28:38 10° 111° (ESE) 1,975 ? 0.5°
Sets 04:30:57 0° 107° (ESE) 2,877 ? 0.9°
